| time (UTC) | temp F | wind direction | speed MPH | gust MPH | rain 1hr in | rain 24hr in | rain mn in | humidity % | barometer mb |
| 20260904001041 | 81 | 211 | 0.0 | 0.0 | 0.00 | 0.00 | 0.00 | 86 | 1014.3 |
| 20260904000541 | 82 | 211 | 0.0 | 1.0 | 0.00 | 0.00 | 0.00 | 86 | 1014.0 |
| 20260904000041 | 82 | 211 | 0.0 | 1.0 | 0.00 | 0.00 | 0.00 | 84 | 1013.9 |
| 20260903235540 | 83 | 211 | 0.0 | 1.0 | 0.00 | 0.00 | 0.00 | 83 | 1014.0 |
| 20260903235040 | 84 | 211 | 0.0 | 2.0 | 0.00 | 0.00 | 0.00 | 80 | 1014.0 |
| 20260903234540 | 85 | 211 | 1.0 | 2.0 | 0.00 | 0.00 | 0.00 | 75 | 1014.0 |
| 20260903234042 | 85 | 211 | 0.0 | 2.0 | 0.00 | 0.00 | 0.00 | 78 | 1014.1 |
| 20260903233540 | 86 | 211 | 0.0 | 2.0 | 0.00 | 0.00 | 0.00 | 72 | 1014.1 |
| 20260903233040 | 86 | 211 | 0.0 | 1.0 | 0.00 | 0.00 | 0.00 | 74 | 1014.0 |
| 20260903232540 | 86 | 211 | 0.0 | 0.0 | 0.00 | 0.00 | 0.00 | 75 | 1013.9 |
| 20260903232040 | 86 | 211 | 0.0 | 1.0 | 0.00 | 0.00 | 0.00 | 76 | 1014.0 |
| 20260903231540 | 87 | 211 | 0.0 | 2.0 | 0.00 | 0.00 | 0.00 | 72 | 1013.9 |
| 20260903231139 | 88 | 211 | 0.0 | 2.0 | 0.00 | 0.00 | 0.00 | 71 | 1013.7 |
| 20260903230542 | 89 | 267 | 0.0 | 2.0 | 0.00 | 0.00 | 0.00 | 65 | 1013.7 |
| 20260903230040 | 89 | 267 | 0.0 | 6.0 | 0.00 | 0.00 | 0.00 | 65 | 1013.8 |
| 20260903225543 | 89 | 263 | 1.0 | 6.0 | 0.00 | 0.00 | 0.00 | 64 | 1013.6 |
| 20260903225038 | 90 | 280 | 1.0 | 3.0 | 0.00 | 0.00 | 0.00 | 64 | 1013.7 |
| 20260903224538 | 89 | 42 | 0.0 | 3.0 | 0.00 | 0.00 | 0.00 | 68 | 1013.7 |
| 20260903224038 | 88 | 292 | 0.0 | 2.0 | 0.00 | 0.00 | 0.00 | 70 | 1013.9 |
| 20260903223541 | 87 | 299 | 0.0 | 0.0 | 0.00 | 0.00 | 0.00 | 72 | 1013.9 |
| 20260903223048 | 87 | 299 | 0.0 | 0.0 | 0.00 | 0.00 | 0.00 | 73 | 1013.7 |
| 20260903222537 | 88 | 299 | 0.0 | 0.0 | 0.00 | 0.00 | 0.00 | 67 | 1013.7 |
| 20260903222038 | 89 | 299 | 0.0 | 0.0 | 0.00 | 0.00 | 0.00 | 65 | 1013.8 |
| 20260903221538 | 89 | 299 | 0.0 | 0.0 | 0.00 | 0.00 | 0.00 | 63 | 1013.9 |
| 20260903221038 | 90 | 299 | 0.0 | 1.0 | 0.00 | 0.00 | 0.00 | 62 | 1013.7 |
| 20260903220537 | 90 | 299 | 0.0 | 2.0 | 0.00 | 0.00 | 0.00 | 60 | 1013.5 |
| 20260903220054 | 90 | 299 | 0.0 | 2.0 | 0.00 | 0.00 | 0.00 | 63 | 1013.6 |
| 20260903215537 | 91 | 299 | 0.0 | 2.0 | 0.00 | 0.00 | 0.00 | 60 | 1013.6 |
| 20260903215038 | 93 | 299 | 0.0 | 3.0 | 0.00 | 0.00 | 0.00 | 56 | 1013.9 |
| 20260903214536 | 94 | 274 | 0.0 | 3.0 | 0.00 | 0.00 | 0.00 | 54 | 1013.9 |
| 20260903214039 | 94 | 57 | 1.0 | 4.0 | 0.00 | 0.00 | 0.00 | 53 | 1013.7 |
| 20260903213535 | 95 | 325 | 1.0 | 4.0 | 0.00 | 0.00 | 0.00 | 55 | 1013.7 |
| 20260903213038 | 96 | 35 | 1.0 | 4.0 | 0.00 | 0.00 | 0.00 | 54 | 1013.7 |
| 20260903212535 | 95 | 360 | 1.0 | 3.0 | 0.00 | 0.00 | 0.00 | 51 | 1013.9 |
| 20260903212035 | 96 | 285 | 1.0 | 4.0 | 0.00 | 0.00 | 0.00 | 54 | 1014.1 |
| 20260903211536 | 96 | 252 | 2.0 | 4.0 | 0.00 | 0.00 | 0.00 | 48 | 1014.0 |
| 20260903211034 | 96 | 288 | 1.0 | 3.0 | 0.00 | 0.00 | 0.00 | 50 | 1013.7 |
| 20260903210534 | 96 | 248 | 1.0 | 4.0 | 0.00 | 0.00 | 0.00 | 51 | 1013.9 |
| 20260903210035 | 96 | 270 | 2.0 | 4.0 | 0.00 | 0.00 | 0.00 | 48 | 1014.0 |
| 20260903205532 | 95 | 342 | 0.0 | 2.0 | 0.00 | 0.00 | 0.00 | 57 | 1013.9 |
| 20260903205033 | 93 | 343 | 1.0 | 2.0 | 0.00 | 0.00 | 0.00 | 54 | 1014.4 |
| 20260903204532 | 92 | 344 | 0.0 | 1.0 | 0.00 | 0.00 | 0.00 | 57 | 1014.3 |
| 20260903204032 | 93 | 344 | 0.0 | 2.0 | 0.00 | 0.00 | 0.00 | 56 | 1014.3 |
| 20260903203530 | 95 | 344 | 1.0 | 2.0 | 0.00 | 0.00 | 0.00 | 53 | 1014.2 |
| 20260903203031 | 93 | 344 | 0.0 | 2.0 | 0.00 | 0.00 | 0.00 | 60 | 1014.4 |
| 20260903202532 | 92 | 344 | 0.0 | 2.0 | 0.00 | 0.00 | 0.00 | 55 | 1014.4 |
| 20260903202031 | 92 | 344 | 0.0 | 2.0 | 0.00 | 0.00 | 0.00 | 58 | 1014.3 |
| 20260903201531 | 92 | 344 | 0.0 | 3.0 | 0.00 | 0.00 | 0.00 | 55 | 1014.4 |
| 20260903201029 | 94 | 342 | 0.0 | 3.0 | 0.00 | 0.00 | 0.00 | 52 | 1014.4 |
| 20260903200528 | 95 | 344 | 1.0 | 2.0 | 0.00 | 0.00 | 0.00 | 51 | 1014.6 |
| 20260903200028 | 94 | 344 | 0.0 | 2.0 | 0.00 | 0.00 | 0.00 | 52 | 1014.8 |
| 20260903195527 | 95 | 344 | 0.0 | 2.0 | 0.00 | 0.00 | 0.00 | 55 | 1014.9 |
| 20260903195028 | 95 | 344 | 1.0 | 3.0 | 0.00 | 0.00 | 0.00 | 53 | 1015.0 |
| 20260903194542 | 95 | 313 | 1.0 | 3.0 | 0.00 | 0.00 | 0.00 | 50 | 1014.8 |
| 20260903194030 | 95 | 296 | 1.0 | 3.0 | 0.00 | 0.00 | 0.00 | 54 | 1014.8 |
| 20260903193527 | 96 | 296 | 1.0 | 4.0 | 0.00 | 0.00 | 0.00 | 52 | 1014.8 |
| 20260903193027 | 97 | 270 | 2.0 | 4.0 | 0.00 | 0.00 | 0.00 | 48 | 1014.8 |
| 20260903192526 | 96 | 260 | 1.0 | 3.0 | 0.00 | 0.00 | 0.00 | 48 | 1014.8 |
| 20260903192025 | 95 | 339 | 1.0 | 3.0 | 0.00 | 0.00 | 0.00 | 50 | 1014.9 |
| 20260903191525 | 96 | 76 | 1.0 | 3.0 | 0.00 | 0.00 | 0.00 | 49 | 1015.2 |
| 20260903191025 | 95 | 277 | 1.0 | 3.0 | 0.00 | 0.00 | 0.00 | 48 | 1015.3 |
| 20260903190524 | 94 | 246 | 0.0 | 6.0 | 0.00 | 0.00 | 0.00 | 51 | 1015.3 |
| 20260903190023 | 96 | 246 | 1.0 | 7.0 | 0.00 | 0.00 | 0.00 | 48 | 1015.3 |
| 20260903185525 | 97 | 267 | 2.0 | 6.0 | 0.00 | 0.00 | 0.00 | 50 | 1015.4 |
| 20260903185023 | 96 | 177 | 1.0 | 4.0 | 0.00 | 0.00 | 0.00 | 47 | 1015.3 |
| 20260903184521 | 96 | 315 | 1.0 | 4.0 | 0.00 | 0.00 | 0.00 | 48 | 1015.4 |
| 20260903184020 | 96 | 271 | 1.0 | 6.0 | 0.00 | 0.00 | 0.00 | 48 | 1015.5 |
| 20260903183519 | 96 | 257 | 3.0 | 6.0 | 0.00 | 0.00 | 0.00 | 47 | 1015.6 |
| 20260903183019 | 96 | 255 | 2.0 | 4.0 | 0.00 | 0.00 | 0.00 | 48 | 1015.7 |
| 20260903182519 | 95 | 309 | 1.0 | 4.0 | 0.00 | 0.00 | 0.00 | 49 | 1015.8 |
| 20260903182018 | 95 | 263 | 2.0 | 4.0 | 0.00 | 0.00 | 0.00 | 51 | 1015.7 |
| 20260903181517 | 93 | 90 | 1.0 | 3.0 | 0.00 | 0.00 | 0.00 | 52 | 1015.7 |
| 20260903181017 | 91 | 324 | 0.0 | 3.0 | 0.00 | 0.00 | 0.00 | 58 | 1015.7 |
| 20260903180516 | 91 | 324 | 0.0 | 3.0 | 0.00 | 0.00 | 0.00 | 54 | 1015.8 |
| 20260903180020 | 91 | 54 | 0.0 | 2.0 | 0.00 | 0.00 | 0.00 | 56 | 1015.8 |
| 20260903175514 | 93 | 55 | 0.0 | 3.0 | 0.00 | 0.00 | 0.00 | 51 | 1016.2 |
| 20260903175015 | 95 | 55 | 0.0 | 4.0 | 0.00 | 0.00 | 0.00 | 49 | 1016.3 |
| 20260903174515 | 95 | 355 | 1.0 | 4.0 | 0.00 | 0.00 | 0.00 | 51 | 1016.3 |
| 20260903174015 | 94 | 323 | 2.0 | 4.0 | 0.00 | 0.00 | 0.00 | 52 | 1016.3 |
| 20260903173513 | 93 | 205 | 1.0 | 3.0 | 0.00 | 0.00 | 0.00 | 52 | 1016.5 |
| 20260903173023 | 94 | 253 | 1.0 | 3.0 | 0.00 | 0.00 | 0.00 | 52 | 1016.4 |
| 20260903172514 | 94 | 300 | 1.0 | 4.0 | 0.00 | 0.00 | 0.00 | 51 | 1016.5 |
| 20260903172015 | 95 | 273 | 2.0 | 4.0 | 0.00 | 0.00 | 0.00 | 51 | 1016.6 |
| 20260903171513 | 95 | 296 | 1.0 | 3.0 | 0.00 | 0.00 | 0.00 | 50 | 1016.7 |
| 20260903171012 | 94 | 311 | 1.0 | 4.0 | 0.00 | 0.00 | 0.00 | 53 | 1016.7 |
| 20260903170511 | 95 | 291 | 1.0 | 4.0 | 0.00 | 0.00 | 0.00 | 51 | 1016.6 |
| 20260903170013 | 95 | 270 | 1.0 | 6.0 | 0.00 | 0.00 | 0.00 | 51 | 1016.7 |
| 20260903165512 | 95 | 265 | 3.0 | 6.0 | 0.00 | 0.00 | 0.00 | 50 | 1016.7 |
| 20260903165011 | 95 | 328 | 1.0 | 4.0 | 0.00 | 0.00 | 0.00 | 52 | 1016.7 |
| 20260903164509 | 94 | 294 | 1.0 | 4.0 | 0.00 | 0.00 | 0.00 | 52 | 1016.9 |
| 20260903164007 | 93 | 282 | 2.0 | 4.0 | 0.00 | 0.00 | 0.00 | 51 | 1017.0 |
| 20260903163505 | 91 | 314 | 1.0 | 3.0 | 0.00 | 0.00 | 0.00 | 61 | 1017.0 |
| 20260903163006 | 89 | 59 | 0.0 | 2.0 | 0.00 | 0.00 | 0.00 | 67 | 1017.2 |
| 20260903162503 | 89 | 59 | 0.0 | 2.0 | 0.00 | 0.00 | 0.00 | 62 | 1017.3 |
| 20260903162003 | 90 | 59 | 0.0 | 2.0 | 0.00 | 0.00 | 0.00 | 62 | 1017.3 |
| 20260903161504 | 91 | 63 | 0.0 | 2.0 | 0.00 | 0.00 | 0.00 | 59 | 1017.2 |
| 20260903161004 | 92 | 70 | 0.0 | 3.0 | 0.00 | 0.00 | 0.00 | 60 | 1017.2 |
| 20260903160503 | 93 | 70 | 1.0 | 3.0 | 0.00 | 0.00 | 0.00 | 54 | 1017.3 |
| 20260903160002 | 93 | 303 | 1.0 | 3.0 | 0.00 | 0.00 | 0.00 | 56 | 1017.3 |
| 20260903155600 | 92 | 27 | 1.0 | 5.0 | 0.00 | 0.00 | 0.00 | 57 | 1017.4 |
| 20260903155100 | 92 | 94 | 2.0 | 5.0 | 0.00 | 0.00 | 0.00 | 57 | 1017.4 |
| 20260903154600 | 93 | 300 | 2.0 | 4.0 | 0.00 | 0.00 | 0.00 | 57 | 1017.2 |
| 20260903154057 | 92 | 346 | 1.0 | 3.0 | 0.00 | 0.00 | 0.00 | 58 | 1017.2 |
| 20260903153557 | 92 | 343 | 1.0 | 3.0 | 0.00 | 0.00 | 0.00 | 61 | 1017.1 |
| 20260903153053 | 92 | 319 | 0.0 | 4.0 | 0.00 | 0.00 | 0.00 | 60 | 1017.1 |
| 20260903152552 | 91 | 300 | 1.0 | 4.0 | 0.00 | 0.00 | 0.00 | 59 | 1017.3 |
| 20260903152050 | 91 | 220 | 0.0 | 3.0 | 0.00 | 0.00 | 0.00 | 61 | 1017.3 |
| 20260903151559 | 91 | 217 | 1.0 | 3.0 | 0.00 | 0.00 | 0.00 | 62 | 1017.4 |
| 20260903151047 | 91 | 226 | 1.0 | 4.0 | 0.00 | 0.00 | 0.00 | 61 | 1017.2 |
| 20260903150546 | 90 | 315 | 1.0 | 4.0 | 0.00 | 0.00 | 0.00 | 61 | 1017.4 |
| 20260903150054 | 90 | 302 | 1.0 | 3.0 | 0.00 | 0.00 | 0.00 | 61 | 1017.4 |
| 20260903145543 | 89 | 315 | 0.0 | 4.0 | 0.00 | 0.00 | 0.00 | 65 | 1017.4 |
| 20260903145042 | 89 | 315 | 1.0 | 4.0 | 0.00 | 0.00 | 0.00 | 64 | 1017.2 |
| 20260903144543 | 88 | 18 | 0.0 | 0.0 | 0.00 | 0.00 | 0.00 | 67 | 1017.1 |
| 20260903144041 | 87 | 18 | 0.0 | 0.0 | 0.00 | 0.00 | 0.00 | 67 | 1017.2 |
| 20260903143537 | 86 | 18 | 0.0 | 0.0 | 0.00 | 0.00 | 0.00 | 71 | 1017.3 |
| 20260903143045 | 86 | 18 | 0.0 | 0.0 | 0.00 | 0.00 | 0.00 | 73 | 1017.3 |
| 20260903142535 | 85 | 18 | 0.0 | 1.0 | 0.00 | 0.00 | 0.00 | 73 | 1017.1 |
| 20260903142035 | 84 | 18 | 0.0 | 1.0 | 0.00 | 0.00 | 0.00 | 77 | 1017.1 |
| 20260903141536 | 84 | 17 | 0.0 | 1.0 | 0.00 | 0.00 | 0.00 | 76 | 1017.1 |
| 20260903141034 | 83 | 17 | 0.0 | 1.0 | 0.00 | 0.00 | 0.00 | 78 | 1017.0 |
| 20260903140530 | 83 | 17 | 0.0 | 1.0 | 0.00 | 0.00 | 0.00 | 79 | 1017.2 |
| 20260903140030 | 83 | 17 | 0.0 | 2.0 | 0.00 | 0.00 | 0.00 | 79 | 1017.2 |
| 20260903135528 | 82 | 17 | 0.0 | 2.0 | 0.00 | 0.00 | 0.00 | 78 | 1017.2 |
| 20260903135027 | 81 | 17 | 0.0 | 0.0 | 0.00 | 0.00 | 0.00 | 81 | 1017.3 |
| 20260903134537 | 80 | 17 | 0.0 | 0.0 | 0.00 | 0.00 | 0.00 | 81 | 1017.2 |
| 20260903134024 | 80 | 17 | 0.0 | 1.0 | 0.00 | 0.00 | 0.00 | 85 | 1017.3 |
| 20260903133527 | 78 | 17 | 0.0 | 1.0 | 0.00 | 0.00 | 0.00 | 89 | 1017.3 |
| 20260903133022 | 78 | 17 | 0.0 | 0.0 | 0.00 | 0.00 | 0.00 | 91 | 1017.4 |
| 20260903132521 | 77 | 17 | 0.0 | 0.0 | 0.00 | 0.00 | 0.00 | 92 | 1017.3 |
| 20260903132019 | 77 | 17 | 0.0 | 0.0 | 0.00 | 0.00 | 0.00 | 92 | 1017.3 |
| 20260903131518 | 76 | 17 | 0.0 | 0.0 | 0.00 | 0.00 | 0.00 | 93 | 1017.3 |
| 20260903131017 | 76 | 17 | 0.0 | 0.0 | 0.00 | 0.00 | 0.00 | 94 | 1017.3 |
| 20260903130515 | 75 | 17 | 0.0 | 0.0 | 0.00 | 0.00 | 0.00 | 94 | 1017.3 |
| 20260903130013 | 74 | 17 | 0.0 | 0.0 | 0.00 | 0.00 | 0.00 | 96 | 1017.3 |
| 20260903125512 | 74 | 17 | 0.0 | 0.0 | 0.00 | 0.00 | 0.00 | 96 | 1017.4 |
| 20260903125012 | 73 | 17 | 0.0 | 0.0 | 0.00 | 0.00 | 0.00 | 97 | 1017.4 |
| 20260903124510 | 72 | 17 | 0.0 | 0.0 | 0.00 | 0.00 | 0.00 | 97 | 1017.4 |
| 20260903124009 | 72 | 19 | 0.0 | 0.0 | 0.00 | 0.00 | 0.00 | 97 | 1017.4 |
| 20260903123513 | 71 | 17 | 0.0 | 0.0 | 0.00 | 0.00 | 0.00 | 97 | 1017.4 |
| 20260903123020 | 71 | 17 | 0.0 | 0.0 | 0.00 | 0.00 | 0.00 | 97 | 1017.3 |
| 20260903122508 | 71 | 17 | 0.0 | 0.0 | 0.00 | 0.00 | 0.00 | 97 | 1017.3 |
| 20260903122007 | 71 | 17 | 0.0 | 0.0 | 0.00 | 0.00 | 0.00 | 97 | 1017.3 |
| 20260903121508 | 71 | 17 | 0.0 | 0.0 | 0.00 | 0.00 | 0.00 | 97 | 1017.2 |
| 20260903121006 | 70 | 17 | 0.0 | 0.0 | 0.00 | 0.00 | 0.00 | 97 | 1017.2 |
| 20260903120509 | 70 | 17 | 0.0 | 0.0 | 0.00 | 0.00 | 0.00 | 97 | 1017.1 |
| 20260903120004 | 70 | 17 | 0.0 | 0.0 | 0.00 | 0.00 | 0.00 | 97 | 1017.1 |
| 20260903115504 | 70 | 17 | 0.0 | 0.0 | 0.00 | 0.00 | 0.00 | 97 | 1017.0 |
| 20260903115003 | 70 | 17 | 0.0 | 0.0 | 0.00 | 0.00 | 0.00 | 97 | 1017.0 |
| 20260903114503 | 70 | 17 | 0.0 | 0.0 | 0.00 | 0.00 | 0.00 | 97 | 1017.0 |
| 20260903114001 | 70 | 17 | 0.0 | 0.0 | 0.00 | 0.00 | 0.00 | 97 | 1016.9 |
| 20260903113501 | 70 | 17 | 0.0 | 0.0 | 0.00 | 0.00 | 0.00 | 97 | 1016.9 |
| 20260903113101 | 70 | 17 | 0.0 | 0.0 | 0.00 | 0.00 | 0.00 | 97 | 1016.9 |
| 20260903112601 | 70 | 17 | 0.0 | 0.0 | 0.00 | 0.00 | 0.00 | 97 | 1016.9 |
| 20260903112104 | 70 | 17 | 0.0 | 0.0 | 0.00 | 0.00 | 0.00 | 97 | 1016.8 |
| 20260903111559 | 70 | 17 | 0.0 | 0.0 | 0.00 | 0.00 | 0.00 | 97 | 1016.7 |
| 20260903111059 | 70 | 17 | 0.0 | 0.0 | 0.00 | 0.00 | 0.00 | 97 | 1016.7 |
| 20260903110558 | 70 | 17 | 0.0 | 0.0 | 0.00 | 0.00 | 0.00 | 97 | 1016.6 |
| 20260903110058 | 70 | 17 | 0.0 | 0.0 | 0.00 | 0.00 | 0.00 | 97 | 1016.6 |
| 20260903105601 | 70 | 17 | 0.0 | 0.0 | 0.00 | 0.00 | 0.00 | 97 | 1016.6 |
| 20260903105057 | 70 | 17 | 0.0 | 0.0 | 0.00 | 0.00 | 0.00 | 97 | 1016.4 |
| 20260903104604 | 70 | 17 | 0.0 | 0.0 | 0.00 | 0.00 | 0.00 | 97 | 1016.4 |
| 20260903104056 | 70 | 17 | 0.0 | 0.0 | 0.00 | 0.00 | 0.00 | 96 | 1016.3 |
| 20260903103556 | 70 | 17 | 0.0 | 0.0 | 0.00 | 0.00 | 0.00 | 96 | 1016.4 |
| 20260903103055 | 70 | 17 | 0.0 | 0.0 | 0.00 | 0.00 | 0.00 | 96 | 1016.4 |
| 20260903102556 | 70 | 17 | 0.0 | 0.0 | 0.00 | 0.00 | 0.00 | 96 | 1016.4 |
| 20260903102054 | 70 | 17 | 0.0 | 0.0 | 0.00 | 0.00 | 0.00 | 96 | 1016.5 |
| 20260903101556 | 70 | 17 | 0.0 | 0.0 | 0.00 | 0.00 | 0.00 | 96 | 1016.5 |
| 20260903101055 | 70 | 17 | 0.0 | 0.0 | 0.00 | 0.00 | 0.00 | 96 | 1016.4 |
| 20260903100553 | 70 | 17 | 0.0 | 0.0 | 0.00 | 0.00 | 0.00 | 96 | 1016.4 |
| 20260903100053 | 71 | 17 | 0.0 | 0.0 | 0.00 | 0.00 | 0.00 | 96 | 1016.3 |
| 20260903095552 | 71 | 17 | 0.0 | 0.0 | 0.00 | 0.00 | 0.00 | 96 | 1016.3 |
| 20260903095052 | 71 | 17 | 0.0 | 0.0 | 0.00 | 0.00 | 0.00 | 96 | 1016.5 |
| 20260903094605 | 71 | 17 | 0.0 | 0.0 | 0.00 | 0.00 | 0.00 | 95 | 1016.5 |
| 20260903094051 | 71 | 17 | 0.0 | 0.0 | 0.00 | 0.00 | 0.00 | 95 | 1016.4 |
| 20260903093553 | 71 | 17 | 0.0 | 0.0 | 0.00 | 0.00 | 0.00 | 95 | 1016.5 |
| 20260903093057 | 71 | 17 | 0.0 | 0.0 | 0.00 | 0.00 | 0.00 | 95 | 1016.4 |
| 20260903092550 | 71 | 17 | 0.0 | 0.0 | 0.00 | 0.00 | 0.00 | 96 | 1016.4 |
| 20260903092050 | 71 | 17 | 0.0 | 1.0 | 0.00 | 0.00 | 0.00 | 96 | 1016.5 |
| 20260903091548 | 71 | 17 | 0.0 | 1.0 | 0.00 | 0.00 | 0.00 | 95 | 1016.5 |
| 20260903091048 | 71 | 17 | 0.0 | 1.0 | 0.00 | 0.00 | 0.00 | 96 | 1016.4 |
| 20260903090549 | 71 | 17 | 0.0 | 1.0 | 0.00 | 0.00 | 0.00 | 96 | 1016.4 |
| 20260903090048 | 71 | 17 | 0.0 | 1.0 | 0.00 | 0.00 | 0.00 | 96 | 1016.4 |
| 20260903085547 | 71 | 17 | 0.0 | 1.0 | 0.00 | 0.00 | 0.00 | 96 | 1016.5 |
| 20260903085047 | 71 | 17 | 0.0 | 1.0 | 0.00 | 0.00 | 0.00 | 96 | 1016.5 |
| 20260903084547 | 71 | 17 | 0.0 | 1.0 | 0.00 | 0.00 | 0.00 | 96 | 1016.6 |
| 20260903084049 | 71 | 17 | 0.0 | 0.0 | 0.00 | 0.00 | 0.00 | 96 | 1016.4 |
| 20260903083546 | 71 | 17 | 0.0 | 0.0 | 0.00 | 0.00 | 0.00 | 96 | 1016.5 |
| 20260903083046 | 71 | 17 | 0.0 | 0.0 | 0.00 | 0.00 | 0.00 | 95 | 1016.4 |
| 20260903082545 | 71 | 17 | 0.0 | 0.0 | 0.00 | 0.00 | 0.00 | 95 | 1016.4 |
| 20260903082048 | 71 | 17 | 0.0 | 0.0 | 0.00 | 0.00 | 0.00 | 95 | 1016.4 |
| 20260903081550 | 71 | 17 | 0.0 | 0.0 | 0.00 | 0.00 | 0.00 | 95 | 1016.3 |
| 20260903081044 | 71 | 17 | 0.0 | 0.0 | 0.00 | 0.00 | 0.00 | 94 | 1016.3 |
| 20260903080543 | 71 | 17 | 0.0 | 0.0 | 0.00 | 0.00 | 0.00 | 94 | 1016.2 |
| 20260903080044 | 71 | 17 | 0.0 | 0.0 | 0.00 | 0.00 | 0.00 | 94 | 1016.2 |
| 20260903075542 | 72 | 17 | 0.0 | 0.0 | 0.00 | 0.00 | 0.00 | 94 | 1016.3 |
| 20260903075041 | 72 | 17 | 0.0 | 0.0 | 0.00 | 0.00 | 0.00 | 94 | 1016.3 |
| 20260903074542 | 72 | 17 | 0.0 | 0.0 | 0.00 | 0.00 | 0.00 | 94 | 1016.3 |
| 20260903074041 | 72 | 17 | 0.0 | 0.0 | 0.00 | 0.00 | 0.00 | 94 | 1016.4 |
| 20260903073541 | 72 | 17 | 0.0 | 0.0 | 0.00 | 0.00 | 0.00 | 93 | 1016.3 |
| 20260903073051 | 72 | 17 | 0.0 | 0.0 | 0.00 | 0.00 | 0.00 | 93 | 1016.1 |
| 20260903072542 | 72 | 17 | 0.0 | 0.0 | 0.00 | 0.00 | 0.00 | 93 | 1016.1 |
| 20260903072038 | 72 | 17 | 0.0 | 0.0 | 0.00 | 0.00 | 0.00 | 93 | 1016.3 |
| 20260903071538 | 72 | 17 | 0.0 | 0.0 | 0.00 | 0.00 | 0.00 | 93 | 1016.4 |
| 20260903071042 | 73 | 17 | 0.0 | 0.0 | 0.00 | 0.00 | 0.00 | 93 | 1016.3 |
| 20260903070537 | 73 | 17 | 0.0 | 0.0 | 0.00 | 0.00 | 0.00 | 93 | 1016.1 |
| 20260903070038 | 73 | 17 | 0.0 | 0.0 | 0.00 | 0.00 | 0.00 | 92 | 1016.3 |
| 20260903065537 | 73 | 17 | 0.0 | 0.0 | 0.00 | 0.00 | 0.00 | 92 | 1016.1 |
| 20260903065035 | 73 | 17 | 0.0 | 0.0 | 0.00 | 0.00 | 0.00 | 92 | 1016.2 |
| 20260903064536 | 73 | 17 | 0.0 | 0.0 | 0.00 | 0.00 | 0.00 | 92 | 1016.2 |
| 20260903064035 | 73 | 17 | 0.0 | 0.0 | 0.00 | 0.00 | 0.00 | 91 | 1016.1 |
| 20260903063535 | 73 | 19 | 0.0 | 0.0 | 0.00 | 0.00 | 0.00 | 92 | 1016.2 |
| 20260903063035 | 73 | 20 | 0.0 | 0.0 | 0.00 | 0.00 | 0.00 | 91 | 1016.2 |
| 20260903062534 | 73 | 20 | 0.0 | 0.0 | 0.00 | 0.00 | 0.00 | 91 | 1016.1 |
| 20260903062034 | 73 | 22 | 0.0 | 0.0 | 0.00 | 0.00 | 0.00 | 91 | 1016.1 |
| 20260903061534 | 73 | 20 | 0.0 | 0.0 | 0.00 | 0.00 | 0.00 | 91 | 1016.2 |
| 20260903061033 | 73 | 20 | 0.0 | 0.0 | 0.00 | 0.00 | 0.00 | 91 | 1016.2 |
| 20260903060532 | 73 | 20 | 0.0 | 0.0 | 0.00 | 0.00 | 0.00 | 91 | 1016.3 |
| 20260903060032 | 73 | 22 | 0.0 | 0.0 | 0.00 | 0.00 | 0.00 | 91 | 1016.2 |
| 20260903055532 | 73 | 21 | 0.0 | 0.0 | 0.00 | 0.00 | 0.00 | 91 | 1016.1 |
| 20260903055032 | 73 | 20 | 0.0 | 0.0 | 0.00 | 0.00 | 0.00 | 91 | 1016.4 |
| 20260903054531 | 74 | 22 | 0.0 | 0.0 | 0.00 | 0.00 | 0.00 | 91 | 1016.3 |
| 20260903054031 | 74 | 20 | 0.0 | 0.0 | 0.00 | 0.00 | 0.00 | 91 | 1016.3 |
| 20260903053530 | 74 | 19 | 0.0 | 0.0 | 0.00 | 0.00 | 0.00 | 91 | 1016.3 |
| 20260903053030 | 74 | 19 | 0.0 | 0.0 | 0.00 | 0.00 | 0.00 | 91 | 1016.4 |
| 20260903052528 | 74 | 17 | 0.0 | 0.0 | 0.00 | 0.00 | 0.00 | 91 | 1016.5 |
| 20260903052029 | 74 | 17 | 0.0 | 0.0 | 0.00 | 0.00 | 0.00 | 91 | 1016.5 |
| 20260903051526 | 74 | 17 | 0.0 | 0.0 | 0.00 | 0.00 | 0.00 | 91 | 1016.4 |
| 20260903051024 | 74 | 17 | 0.0 | 0.0 | 0.00 | 0.00 | 0.00 | 91 | 1016.5 |
| 20260903050526 | 74 | 17 | 0.0 | 0.0 | 0.00 | 0.00 | 0.00 | 90 | 1016.2 |
| 20260903050021 | 74 | 17 | 0.0 | 0.0 | 0.00 | 0.00 | 0.00 | 90 | 1016.3 |
| 20260903045520 | 75 | 17 | 0.0 | 0.0 | 0.00 | 0.00 | 0.00 | 89 | 1016.3 |
| 20260903045020 | 75 | 17 | 0.0 | 0.0 | 0.00 | 0.00 | 0.00 | 89 | 1016.2 |
| 20260903044520 | 75 | 17 | 0.0 | 1.0 | 0.00 | 0.00 | 0.00 | 89 | 1016.2 |
| 20260903044020 | 75 | 17 | 0.0 | 1.0 | 0.00 | 0.00 | 0.00 | 89 | 1016.1 |
| 20260903043520 | 74 | 17 | 0.0 | 0.0 | 0.00 | 0.00 | 0.00 | 90 | 1016.2 |
| 20260903043021 | 74 | 17 | 0.0 | 0.0 | 0.00 | 0.00 | 0.00 | 90 | 1016.3 |
| 20260903042519 | 75 | 17 | 0.0 | 0.0 | 0.00 | 0.00 | 0.00 | 90 | 1016.3 |
| 20260903042022 | 75 | 17 | 0.0 | 0.0 | 0.00 | 0.00 | 0.00 | 89 | 1016.4 |
| 20260903041519 | 75 | 17 | 0.0 | 0.0 | 0.00 | 0.00 | 0.00 | 89 | 1016.3 |
| 20260903041019 | 75 | 17 | 0.0 | 0.0 | 0.00 | 0.00 | 0.00 | 89 | 1016.3 |
| 20260903040519 | 75 | 17 | 0.0 | 0.0 | 0.00 | 0.00 | 0.00 | 90 | 1016.3 |
| 20260903040019 | 75 | 17 | 0.0 | 0.0 | 0.00 | 0.00 | 0.00 | 90 | 1016.5 |
| 20260903035518 | 75 | 17 | 0.0 | 0.0 | 0.00 | 0.00 | 0.00 | 90 | 1016.5 |
| 20260903035018 | 75 | 17 | 0.0 | 0.0 | 0.00 | 0.00 | 0.00 | 90 | 1016.5 |
| 20260903034518 | 75 | 360 | 0.0 | 0.0 | 0.00 | 0.00 | 0.00 | 90 | 1016.4 |
| 20260903034019 | 75 | 23 | 0.0 | 0.0 | 0.00 | 0.00 | 0.00 | 89 | 1016.6 |
| 20260903033517 | 75 | 24 | 0.0 | 0.0 | 0.00 | 0.00 | 0.00 | 89 | 1016.5 |
| 20260903033017 | 75 | 360 | 0.0 | 0.0 | 0.00 | 0.00 | 0.00 | 88 | 1016.5 |
| 20260903032518 | 76 | 360 | 0.0 | 0.0 | 0.00 | 0.00 | 0.00 | 88 | 1016.5 |
| 20260903032023 | 76 | 360 | 0.0 | 0.0 | 0.00 | 0.00 | 0.00 | 88 | 1016.4 |
| 20260903031528 | 75 | 25 | 0.0 | 0.0 | 0.00 | 0.00 | 0.00 | 88 | 1016.4 |
| 20260903031018 | 76 | 360 | 0.0 | 0.0 | 0.00 | 0.00 | 0.00 | 88 | 1016.4 |
| 20260903030519 | 76 | 22 | 0.0 | 0.0 | 0.00 | 0.00 | 0.00 | 88 | 1016.4 |
| 20260903030016 | 76 | 360 | 0.0 | 0.0 | 0.00 | 0.00 | 0.00 | 87 | 1016.5 |
| 20260903025517 | 76 | 26 | 0.0 | 1.0 | 0.00 | 0.00 | 0.00 | 87 | 1016.5 |
| 20260903025016 | 77 | 18 | 0.0 | 1.0 | 0.00 | 0.00 | 0.00 | 87 | 1016.4 |
| 20260903024516 | 76 | 360 | 0.0 | 0.0 | 0.00 | 0.00 | 0.00 | 87 | 1016.5 |
| 20260903024018 | 76 | 360 | 0.0 | 0.0 | 0.00 | 0.00 | 0.00 | 87 | 1016.6 |
| 20260903023515 | 76 | 360 | 0.0 | 0.0 | 0.00 | 0.00 | 0.00 | 87 | 1016.4 |
| 20260903023024 | 76 | 360 | 0.0 | 0.0 | 0.00 | 0.00 | 0.00 | 87 | 1016.4 |
| 20260903022516 | 76 | 360 | 0.0 | 0.0 | 0.00 | 0.00 | 0.00 | 87 | 1016.6 |
| 20260903022015 | 76 | 17 | 0.0 | 0.0 | 0.00 | 0.00 | 0.00 | 87 | 1016.6 |
| 20260903021535 | 77 | 17 | 0.0 | 0.0 | 0.00 | 0.00 | 0.00 | 87 | 1016.6 |
| 20260903021018 | 77 | 17 | 0.0 | 0.0 | 0.00 | 0.00 | 0.00 | 87 | 1016.6 |
| 20260903020518 | 77 | 17 | 0.0 | 0.0 | 0.00 | 0.00 | 0.00 | 86 | 1016.5 |
| 20260903020016 | 77 | 17 | 0.0 | 0.0 | 0.00 | 0.00 | 0.00 | 86 | 1016.4 |
| 20260903015514 | 77 | 17 | 0.0 | 0.0 | 0.00 | 0.00 | 0.00 | 86 | 1016.4 |
| 20260903015014 | 77 | 17 | 0.0 | 0.0 | 0.00 | 0.00 | 0.00 | 86 | 1016.3 |
| 20260903014514 | 77 | 17 | 0.0 | 0.0 | 0.00 | 0.00 | 0.00 | 86 | 1016.2 |
| 20260903014014 | 77 | 17 | 0.0 | 0.0 | 0.00 | 0.00 | 0.00 | 86 | 1016.2 |
| 20260903013515 | 78 | 17 | 0.0 | 0.0 | 0.00 | 0.00 | 0.00 | 86 | 1016.1 |
| 20260903013015 | 78 | 17 | 0.0 | 0.0 | 0.00 | 0.00 | 0.00 | 86 | 1016.0 |
| 20260903012513 | 78 | 17 | 0.0 | 0.0 | 0.00 | 0.00 | 0.00 | 86 | 1016.1 |
| 20260903012018 | 78 | 17 | 0.0 | 0.0 | 0.00 | 0.00 | 0.00 | 86 | 1016.0 |
| 20260903011513 | 78 | 17 | 0.0 | 0.0 | 0.00 | 0.00 | 0.00 | 86 | 1016.1 |
| 20260903011013 | 78 | 17 | 0.0 | 0.0 | 0.00 | 0.00 | 0.00 | 86 | 1016.1 |
| 20260903010513 | 79 | 17 | 0.0 | 0.0 | 0.00 | 0.00 | 0.00 | 86 | 1016.0 |
| 20260903010017 | 79 | 17 | 0.0 | 0.0 | 0.00 | 0.00 | 0.00 | 85 | 1016.1 |
| 20260903005513 | 79 | 17 | 0.0 | 0.0 | 0.00 | 0.00 | 0.00 | 85 | 1016.1 |
| 20260903005012 | 79 | 17 | 0.0 | 0.0 | 0.00 | 0.00 | 0.00 | 85 | 1016.1 |
| 20260903004514 | 80 | 17 | 0.0 | 0.0 | 0.00 | 0.00 | 0.00 | 84 | 1016.1 |
| 20260903004012 | 80 | 17 | 0.0 | 0.0 | 0.00 | 0.00 | 0.00 | 85 | 1016.0 |
| 20260903003512 | 80 | 17 | 0.0 | 0.0 | 0.00 | 0.00 | 0.00 | 84 | 1015.9 |
| 20260903003011 | 80 | 17 | 0.0 | 0.0 | 0.00 | 0.00 | 0.00 | 84 | 1015.8 |
| 20260903002511 | 80 | 17 | 0.0 | 0.0 | 0.00 | 0.00 | 0.00 | 84 | 1015.8 |
| 20260903002013 | 80 | 17 | 0.0 | 0.0 | 0.00 | 0.00 | 0.00 | 83 | 1015.8 |
| 20260903001513 | 81 | 17 | 0.0 | 0.0 | 0.00 | 0.00 | 0.00 | 82 | 1015.6 |